Location: Ergnies
(50.0854°N, 2.0375°E)
Time: 20:19:58
(UTC+00:00)

Cosmos 2278 Rocket - Pass Details

Date: 14 January 2026
Orbit: 839 x 846 km, 71.0° (Epoch: 13 February)

Event Time Altitude Azimuth Distance (km) Brightness Sun altitude
Rises 06:54:21 0° 229° (SW) 3,384 5.1 -8.1°
Reaches altitude 10° 06:56:53 10° 235° (SW) 2,454 4.3 -7.7°
Maximum altitude 07:02:17 45° 308° (NW) 1,135 2.5 -6.9°
Drops below altitude 10° 07:07:43 10° 21° (NNE) 2,472 4.6 -6.1°
Sets 07:10:17 0° 28° (NNE) 3,411 5.4 -5.7°
